Location: Moonridge Observatory
(39.2268°N, 77.7914°W)
Time: 05:15:29
(UTC-04:00)

CZ-2C R/B - Visible Passes

Search period start: 06 May 2016 00:00
Search period end: 16 May 2016 00:00
Orbit: 704 x 908 km, 98.2° (Epoch: 05 May)

Date Brightness Start Highest point End Pass type
(mag) Time Alt. Az. Time Alt. Az. Time Alt. Az.
06 May 4.3 01:36:31 37° NNE 01:36:31 37° NNE 01:39:54 10° N visible
06 May 5.2 03:17:34 13° WNW 03:17:34 13° WNW 03:18:26 10° NW visible
07 May 4.7 01:11:22 27° NE 01:11:22 27° NE 01:14:47 10° N visible
07 May 4.7 02:52:26 21° NW 02:52:26 21° NW 02:54:39 10° NW visible
08 May 5.1 00:46:14 18° ENE 00:46:14 18° ENE 00:49:18 10° NNE visible
08 May 4.2 02:27:17 33° NW 02:27:17 33° NW 02:30:21 10° NNW visible
09 May 5.6 00:21:05 10° ENE 00:21:35 10° ENE 00:22:34 10° NE visible
09 May 3.9 02:02:09 45° NNW 02:02:09 45° NNW 02:05:45 10° NNW visible
10 May 4.0 01:37:01 43° NNE 01:37:01 43° NNE 01:40:54 10° N visible
10 May 5.1 03:18:04 14° WNW 03:18:04 14° WNW 03:19:21 10° NW visible
11 May 4.5 01:11:52 30° NE 01:11:52 30° NE 01:15:49 10° N visible
11 May 4.6 02:52:57 23° WNW 02:52:57 23° WNW 02:55:36 10° NW visible
12 May 5.0 00:46:45 19° ENE 00:46:50 19° ENE 00:50:24 10° NNE visible
12 May 4.0 02:27:49 37° NW 02:27:49 37° NW 02:31:19 10° NNW visible
13 May 5.5 00:21:37 11° ENE 00:22:27 11° ENE 00:24:04 10° NE visible
13 May 3.6 02:02:40 53° NNW 02:02:40 53° NNW 02:06:44 10° NNW visible
14 May 3.8 01:37:33 49° NE 01:37:33 49° NE 01:41:55 10° N visible
14 May 5.1 03:18:36 15° WNW 03:18:36 15° WNW 03:20:18 10° NW visible
15 May 4.4 01:12:25 32° ENE 01:12:25 32° ENE 01:16:52 10° N visible
15 May 4.5 02:53:29 25° WNW 02:53:29 25° WNW 02:56:34 10° NW visible
